User: anonymous   Login
Location: *
(34.8620°S, 39.3380°E)
Time: 16:55:43
(UTC+00:00)
Language:

Meteor 2-11 Rocket - Orbit

View from above orbital plane
View from above orbital plane
View from above satellite
View from above satellite

Ground track
Ground track

The orbit data is extracted from the following two-line orbital elements,

1 15100U 84072B   21296.58380824  .00000016  00000-0  14871-5 0  9999
2 15100  82.5279 317.1943 0011454 198.6256 161.4487 13.84450868884606
Epoch (UTC): 23 October 2021 14:00:41
Eccentricity: 0.0011454
inclination: 82.5279°
perigee height: 940 km
apogee height: 956 km
right ascension of ascending node: 317.1943°
argument of perigee: 198.6256°
revolutions per day: 13.84450868
mean anomaly at epoch: 161.4487°
orbit number at epoch: 88460

The dashed part of the orbit path shows where the satellite is in the earth's shadow,  

DLR